This is the latest recevied weather packets stored in our database for station/object KQ4PPF. If no packets are shown the sender has not sent any weather packets the latest 10 day(s).
| Time | Temp. | Humidity | Pressure | Rain* | Wind** | Luminosity | Snow |
|---|---|---|---|---|---|---|---|
| 1788546240 | 35.56° C | 53% | 1015.7 hPa | 0 mm | - | 78 W/m² | - |
| 1788545935 | 35.56° C | 52% | 1015.6 hPa | 0 mm | - | 93 W/m² | - |
| 1788545629 | 35.56° C | 53% | 1015.7 hPa | 0 mm | - | 171 W/m² | - |
| 1788545325 | 35.56° C | 53% | 1015.7 hPa | 0 mm | - | 544 W/m² | - |
| 1788545015 | 35° C | 53% | 1016.1 hPa | 0 mm | - | 587 W/m² | - |
| 1788544714 | 36.11° C | 52% | 1016 hPa | 0 mm | - | 370 W/m² | - |
| 1788544412 | 35.56° C | 54% | 1015.8 hPa | 0 mm | - | 637 W/m² | - |
| 1788544107 | 35.56° C | 53% | 1016.1 hPa | 0 mm | - | 644 W/m² | - |
| 1788543803 | 36.11° C | 53% | 1016.3 hPa | 0 mm | - | 620 W/m² | - |
| 1788543499 | 35.56° C | 55% | 1016.2 hPa | 0 mm | - | 640 W/m² | - |
| 1788543194 | 36.67° C | 54% | 1016.3 hPa | 0 mm | - | 618 W/m² | - |
| 1788542891 | 36.67° C | 55% | 1016.4 hPa | 0 mm | - | 632 W/m² | - |
| 1788542589 | 36.67° C | 55% | 1016.4 hPa | 0 mm | - | 629 W/m² | - |
| 1788542285 | 36.11° C | 55% | 1016.6 hPa | 0 mm | - | 636 W/m² | - |
| 1788541979 | 35.56° C | 56% | 1016.8 hPa | 0 mm | - | 637 W/m² | - |
| 1788541676 | 35.56° C | 56% | 1016.7 hPa | 0 mm | - | 613 W/m² | - |
| 1788541371 | 35.56° C | 59% | 1016.8 hPa | 0 mm | - | 632 W/m² | - |
| 1788541070 | 36.11° C | 57% | 1017 hPa | 0 mm | - | 665 W/m² | - |
| 1788540764 | 35.56° C | 57% | 1016.8 hPa | 0 mm | - | 631 W/m² | - |
| 1788540459 | 35.56° C | 57% | 1016.9 hPa | 0 mm | - | 611 W/m² | - |
| 1788540154 | 35.56° C | 58% | 1017 hPa | 0 mm | - | 600 W/m² | - |
| 1788539850 | 35.56° C | 59% | 1016.8 hPa | 0 mm | - | 615 W/m² | - |
| 1788539545 | 36.11° C | 58% | 1017 hPa | 0 mm | - | 632 W/m² | - |
| 1788539244 | 35° C | 58% | 1017 hPa | 0 mm | - | 638 W/m² | - |
| 1788538940 | 35° C | 59% | 1017 hPa | 0 mm | - | 626 W/m² | - |
* Rain latest hour (hover to see other rain measurements)
** Current wind speed in m/s (hover to see current wind gust speed)